Weather History for KVGT - January, 2014

Change the Weather History Date:

Wednesday, January 1, 2014

  Actual Average Record
Temperature  
Mean Temperature 52 °F -  
Max Temperature 64 °F 58 °F 65 °F (1961)
Min Temperature 39 °F 35 °F 10 °F (1954)
Degree Days  
Heating Degree Days 14    
Growing Degree Days 2 (Base 50)    
Moisture  
Dew Point 20 °F    
Average Humidity 32    
Maximum Humidity 49    
Minimum Humidity 18    
Precipitation  
Precipitation 0.00 in - - ()
Sea Level Pressure  
Sea Level Pressure 30.27 in    
Wind  
Wind Speed 3 mph (NW)    
Max Wind Speed 8 mph    
Max Gust Speed -    
Visibility 10 miles    
Events      
Averages and records for this station are not official NWS values.
T = Trace of Precipitation, MM = Missing Value Source: NWS Daily Summary

Daily Weather History Graph

Daily Weather History Graph

Search for Another Location

Airport or City:

Trip Planner

Search our weather history database for the weather conditions in past years. The results will help you decide how hot, cold, wet, or windy it might be!

Date:

Astronomy

Jan. 01, 2014 Rise Set
Actual Time 6:52 AM PST 4:37 PM PST
Civil Twilight 6:23 AM PST 5:05 PM PST
Nautical Twilight 5:51 AM PST 5:37 PM PST
Astronomical Twilight 5:20 AM PST 6:08 PM PST
Moon 6:48 AM PST (1/1) 5:24 PM PST (1/1)
Length of Visible Light 10h 42m
Length of Day
9h 45m
New Moon, 0% of the Moon is Illuminated
Jan 1
New Moon
Jan 7
First Quarter
Jan 15
Full
Jan 23
Last Quarter
Jan 30
New

Hourly Weather History & Observations

Time (PST) Temp. Windchill Dew Point Humidity Pressure Visibility Wind Dir Wind Speed Gust Speed Precip Events Conditions
12:53 AM 42.1 °F - 19.9 °F 41% 30.23 in 10.0 mi Calm Calm - N/A   Clear
1:53 AM 43.0 °F 41.3 °F 17.1 °F 35% 30.23 in 10.0 mi North 3.5 mph - N/A   Clear
2:53 AM 39.9 °F 35.1 °F 18.0 °F 41% 30.25 in 10.0 mi NW 6.9 mph - N/A   Clear
3:53 AM 45.0 °F 41.2 °F 15.1 °F 30% 30.24 in 10.0 mi North 6.9 mph - N/A   Clear
4:53 AM 42.1 °F - 16.0 °F 35% 30.25 in 10.0 mi Calm Calm - N/A   Clear
5:53 AM 44.1 °F 42.5 °F 15.1 °F 31% 30.27 in 10.0 mi NNE 3.5 mph - N/A   Clear
6:53 AM 39.9 °F 37.8 °F 17.1 °F 40% 30.30 in 10.0 mi NNW 3.5 mph - N/A   Clear
7:53 AM 45.0 °F - 17.1 °F 33% 30.32 in 10.0 mi Calm Calm - N/A   Clear
8:53 AM 46.9 °F - 18.0 °F 32% 30.35 in 10.0 mi South 3.5 mph - N/A   Clear
9:53 AM 52.0 °F - 18.0 °F 26% 30.35 in 10.0 mi SSE 4.6 mph - N/A   Clear
10:53 AM 55.0 °F - 18.0 °F 23% 30.33 in 10.0 mi Calm Calm - N/A   Clear
11:53 AM 59.0 °F - 18.0 °F 20% 30.29 in 10.0 mi Calm Calm - N/A   Clear
12:53 PM 63.0 °F - 19.0 °F 18% 30.25 in 10.0 mi Calm Calm - N/A   Clear
1:53 PM 64.0 °F - 19.0 °F 18% 30.22 in 10.0 mi Calm Calm - N/A   Clear
2:53 PM 64.0 °F - 19.9 °F 18% 30.22 in 10.0 mi WNW 3.5 mph - N/A   Clear
3:53 PM 64.9 °F - 21.0 °F 19% 30.21 in 10.0 mi WSW 3.5 mph - N/A   Clear
4:53 PM 61.0 °F - 21.9 °F 22% 30.23 in 10.0 mi Calm Calm - N/A   Clear
5:53 PM 55.9 °F - 25.0 °F 30% 30.25 in 10.0 mi NW 3.5 mph - N/A   Clear
6:53 PM 55.0 °F - 25.0 °F 31% 30.26 in 10.0 mi NNW 4.6 mph - N/A   Clear
7:53 PM 51.1 °F - 26.1 °F 38% 30.27 in 10.0 mi NW 5.8 mph - N/A   Clear
8:53 PM 48.9 °F - 26.1 °F 41% 30.28 in 10.0 mi Calm Calm - N/A   Clear
9:53 PM 46.9 °F - 26.1 °F 44% 30.29 in 10.0 mi WNW 3.5 mph - N/A   Clear
10:53 PM 44.1 °F 40.8 °F 26.1 °F 49% 30.29 in 10.0 mi NW 5.8 mph - N/A   Clear
11:53 PM 46.0 °F 41.9 °F 26.1 °F 46% 30.28 in 10.0 mi NW 8.1 mph - N/A   Clear